Theta_e
303 293 290 289 291 290 291 294 294 293 292 290 291 289 287 288 289 292 293 292 292 289 288 287 288 289 289 289 290 290 290 288 288 287 287 287 287 288 287 288 288 288 288 293 293 292 292 291 290 290 289 289 289 289 290 290 290 290 291 291 291 292 293 292 292 292 292 291 291 292 292 292 293 295 296 296 297 298 299 300 301 303 302 303 306 310
302 293 294 293 291 291 292 293 293 292 291 290 289 288 287 289 287 292 291 293 292 288 286 288 288 289 289 290 290 290 289 287 287 286 286 286 287 287 287 288 287 288 291 291 289 291 290 288 290 289 289 289 288 288 289 289 290 290 290 290 291 292 292 292 292 292 292 292 292 291 291 292 292 293 294 294 295 296 299 300 301 299 299 302 304 306
292 291 294 294 294 294 294 294 293 291 291 291 288 287 286 287 291 292 292 292 292 289 286 288 287 287 289 290 290 289 288 287 287 287 286 286 286 286 287 286 287 286 286 286 287 289 286 288 288 288 288 288 288 288 289 289 289 290 290 290 291 291 291 291 292 292 292 292 293 292 292 292 292 294 295 295 296 296 297 299 299 299 300 301 301 304
288 294 293 294 294 290 291 292 291 291 292 288 288 286 284 290 286 283 291 290 291 288 286 287 286 287 289 289 289 289 287 287 289 289 289 288 286 285 285 286 285 285 285 285 285 285 285 286 286 286 287 288 288 288 288 288 289 290 290 290 290 291 291 291 291 292 292 292 293 293 293 293 293 292 294 295 296 296 296 296 298 298 299 300 301 303
290 294 294 295 295 292 291 294 292 289 287 291 291 287 287 289 288 287 286 289 290 291 290 287 284 284 287 285 286 286 288 288 288 288 287 287 287 288 288 287 286 285 285 285 285 285 285 285 285 286 287 287 287 288 288 289 289 290 290 290 290 291 291 291 292 291 292 292 292 292 292 293 292 292 292 292 292 294 294 295 296 297 299 300 300 302
292 293 293 292 295 295 293 291 291 291 286 286 291 290 289 289 287 288 288 287 283 282 288 286 276 278 285 286 285 285 286 285 286 286 285 285 285 285 284 284 285 287 287 286 285 285 285 285 286 286 286 286 287 287 288 289 289 290 290 290 290 291 291 291 291 291 291 291 290 290 289 288 288 288 289 289 289 291 292 293 295 297 298 299 300 301
291 292 294 294 293 293 292 290 293 291 286 284 286 289 290 288 288 287 286 284 278 276 286 287 276 275 284 284 285 285 286 285 285 284 284 284 285 283 284 285 284 285 285 286 286 284 284 285 285 286 286 286 286 287 289 289 289 290 290 290 290 290 290 291 291 291 291 290 290 289 289 288 288 288 290 291 291 292 293 294 294 296 297 299 299 300
291 292 290 292 291 290 288 287 292 292 286 282 288 289 288 287 286 285 285 284 281 286 288 287 282 276 276 283 287 286 285 284 283 283 283 284 284 283 283 284 284 284 284 284 284 284 284 285 285 285 286 286 287 288 289 289 289 289 289 289 290 290 290 290 291 290 290 289 289 288 288 288 288 288 289 290 291 292 293 293 294 295 296 297 298 299
291 292 290 291 290 286 286 290 291 292 286 286 288 289 286 287 286 286 284 281 282 280 277 280 284 276 275 282 287 286 283 281 281 282 282 283 282 283 283 284 284 284 284 284 283 284 284 284 285 286 286 287 287 288 288 289 289 289 289 289 289 289 289 289 290 290 289 289 289 288 288 287 288 289 289 290 291 291 292 292 293 294 295 296 297 299
292 291 291 291 286 284 289 286 289 291 285 289 288 290 289 288 287 286 281 282 281 276 275 278 282 275 276 282 283 285 283 280 281 282 282 282 282 283 283 284 284 283 283 284 283 284 284 285 285 286 287 287 287 288 289 289 289 289 288 288 288 288 288 289 289 289 288 286 285 284 284 283 284 286 288 289 289 290 291 290 291 293 294 295 296 297
291 294 295 289 288 291 285 286 290 288 290 290 290 287 287 287 285 285 283 282 277 272 276 280 282 279 272 280 282 281 283 283 281 281 281 282 282 282 283 283 283 283 283 283 283 283 284 285 285 286 286 286 287 288 288 288 288 288 288 287 287 287 287 288 287 286 284 284 283 282 282 282 282 283 284 285 287 289 290 290 291 292 294 294 294 295
291 292 289 290 294 292 289 288 291 290 291 289 283 282 282 280 281 278 278 280 271 271 277 277 280 282 272 275 281 280 281 282 282 280 280 280 280 282 282 282 282 282 283 283 282 283 284 285 285 285 285 286 286 287 287 287 287 287 287 286 285 285 286 285 284 284 283 283 282 282 282 281 282 283 283 284 285 288 289 289 290 291 293 293 293 294
283 287 290 291 293 293 289 286 288 288 290 287 283 282 276 273 275 272 274 269 271 271 275 276 278 275 275 281 281 280 281 281 282 281 281 280 280 281 281 282 282 282 282 282 282 283 284 284 284 284 285 285 285 286 286 286 286 286 285 285 284 283 283 283 283 282 282 282 282 282 281 282 282 282 283 284 284 285 286 289 289 290 291 293 292 292
284 285 288 288 288 292 291 283 283 282 283 284 281 279 276 271 271 269 271 273 272 276 276 276 278 273 277 280 284 281 282 282 282 282 281 281 281 281 282 282 282 282 282 282 282 283 283 284 284 284 285 285 285 285 285 285 285 284 284 283 282 282 282 282 282 282 281 282 282 282 281 281 281 281 282 283 284 285 286 287 289 291 292 292 292 292
280 281 283 285 283 291 290 288 285 283 281 280 283 279 277 275 271 268 271 267 269 271 274 278 273 269 270 275 282 282 282 282 282 282 282 281 281 281 281 281 281 281 281 281 282 283 283 284 284 284 285 285 285 285 284 284 284 283 283 282 281 280 281 281 281 281 281 281 281 281 281 281 281 281 282 283 284 285 285 286 288 291 292 292 292 292
282 284 287 287 285 289 288 289 288 286 282 282 282 281 276 275 280 274 273 270 269 270 271 271 271 275 276 281 282 282 282 282 282 282 281 280 281 281 281 281 281 281 281 282 282 283 283 284 284 284 284 284 284 284 284 283 283 282 282 281 280 279 279 280 280 280 280 280 281 281 281 281 282 282 281 281 281 282 284 286 289 290 292 293 293 293
284 281 283 288 289 282 281 286 288 288 276 279 279 276 278 281 279 275 275 275 272 271 271 272 274 278 281 281 280 281 280 281 281 280 280 280 280 280 281 281 281 281 280 281 282 282 283 283 283 284 284 284 283 283 283 282 282 281 281 280 279 278 279 279 279 278 278 279 279 279 280 281 280 279 279 279 280 281 282 282 283 287 292 293 293 293
281 284 283 285 284 285 285 285 286 286 287 280 276 279 283 285 281 277 270 271 269 266 269 271 271 274 275 270 279 279 278 279 279 279 279 280 280 279 280 280 280 280 280 281 282 282 283 283 283 283 284 283 283 282 282 281 281 281 280 279 278 278 278 278 278 278 278 278 278 279 279 279 279 278 278 279 279 280 280 281 282 284 287 292 293 293
285 281 283 283 284 284 285 287 284 285 287 282 280 287 278 273 273 276 271 267 267 268 270 274 274 275 275 275 276 277 277 278 279 279 278 278 278 279 279 279 280 280 281 281 281 282 282 283 283 283 282 282 282 282 281 281 281 280 279 279 278 278 278 278 278 278 278 278 278 278 278 278 278 278 278 278 279 279 278 279 281 283 284 286 291 292
285 282 282 282 283 284 284 283 277 278 285 285 285 280 284 277 277 273 275 273 274 269 270 271 273 270 278 277 278 279 279 279 278 278 278 278 279 279 279 279 279 280 280 281 281 282 282 282 281 280 280 280 280 280 280 280 279 279 278 278 278 278 277 277 276 276 276 276 276 277 277 277 277 277 276 276 276 277 277 278 279 282 283 285 287 291
283 285 279 280 282 283 277 280 279 281 277 278 277 277 279 279 280 276 276 272 272 269 269 269 267 272 277 279 280 279 279 279 278 278 279 279 279 279 279 279 279 280 280 281 281 282 282 281 281 280 280 280 280 280 279 279 278 278 278 277 277 276 275 275 275 275 275 275 275 275 275 275 275 276 276 275 275 276 276 277 278 280 283 284 285 287
283 281 280 279 277 278 280 284 284 284 283 280 279 278 279 276 273 271 270 276 272 272 269 268 268 274 279 281 281 280 280 280 280 279 279 279 279 279 279 279 279 280 280 281 281 281 281 281 281 280 280 280 279 279 278 278 277 277 276 276 276 275 275 274 274 274 274 274 274 274 274 274 274 274 274 274 274 275 276 277 278 279 281 282 285 287
285 282 281 279 281 281 283 284 285 284 283 282 281 279 281 279 278 273 269 272 272 273 273 273 269 272 280 280 281 281 281 280 280 280 279 279 279 279 279 279 279 280 280 281 280 281 280 280 280 280 279 279 278 278 277 277 277 276 276 275 275 275 274 275 274 274 274 273 273 273 273 273 273 273 273 273 273 274 275 276 277 278 278 279 281 285
289 281 277 280 282 280 280 282 283 284 282 279 280 281 279 277 278 276 276 276 271 271 268 270 268 272 278 280 280 281 281 280 281 280 279 279 279 279 279 278 279 280 280 281 280 280 280 279 279 279 278 278 278 277 277 277 276 276 275 275 275 274 274 273 273 273 272 272 272 272 272 272 272 272 272 272 273 273 274 276 276 277 278 279 280 280
281 281 279 276 276 278 275 276 277 279 280 276 277 279 280 281 280 279 277 276 269 272 272 270 265 271 279 280 281 281 281 280 280 279 279 278 278 279 278 279 279 280 280 280 279 279 279 279 278 278 278 277 277 277 276 276 275 275 274 274 273 273 273 272 272 272 271 271 271 271 271 271 271 271 271 272 272 273 274 274 275 276 277 278 278 279
285 281 279 275 274 274 275 276 274 272 275 277 278 278 280 278 277 275 271 273 269 273 274 270 269 276 278 280 280 280 280 279 280 279 279 279 278 278 278 279 279 280 280 279 279 278 278 278 278 277 277 277 276 276 276 275 275 274 274 274 273 273 272 272 272 271 271 270 270 270 270 270 271 271 271 271 272 272 273 274 275 276 276 277 277 278
281 281 281 282 281 280 283 277 279 280 276 272 275 276 277 279 279 278 276 272 270 273 272 273 274 274 276 278 279 280 280 280 279 278 278 278 278 278 278 278 279 280 279 279 278 278 278 277 276 276 276 276 275 275 275 274 274 273 273 273 273 272 272 271 271 271 270 270 269 269 269 269 270 270 270 270 271 272 273 273 274 275 275 276 276 277
279 277 280 280 281 283 284 283 280 280 276 277 275 275 277 277 278 276 273 271 276 271 268 275 276 274 275 277 278 279 279 278 278 277 278 278 278 278 278 278 281 279 279 278 277 277 276 276 276 275 275 275 275 274 274 274 273 273 272 272 272 272 272 271 271 270 269 269 269 268 268 269 269 270 270 270 271 271 271 272 273 274 275 276 276 276
279 277 281 280 279 281 282 281 281 279 278 277 277 277 276 277 276 274 274 276 276 272 270 275 276 274 276 278 279 279 278 277 278 278 278 279 279 278 278 277 278 278 277 277 277 276 276 275 275 275 274 274 274 273 273 272 272 272 272 272 272 272 272 271 270 269 269 268 267 267 268 268 269 269 269 269 270 270 271 272 272 274 275 275 275 276
279 277 279 280 278 279 279 280 280 279 278 278 277 277 277 277 276 276 276 277 276 275 276 275 275 275 277 279 280 280 280 280 278 279 279 278 277 277 277 277 277 277 277 276 276 276 275 275 274 274 274 273 273 272 272 272 271 271 271 271 271 271 271 271 270 269 268 268 267 268 268 268 268 268 269 269 269 270 270 271 272 273 274 274 275 275
280 276 280 278 276 276 278 279 279 278 277 275 276 277 277 277 277 277 276 277 277 276 276 276 275 274 279 281 281 281 281 279 279 278 278 278 277 276 277 277 277 277 276 276 275 275 274 274 274 273 272 272 272 271 271 271 271 270 270 270 271 271 270 270 268 268 268 267 267 267 267 267 267 268 268 268 269 269 270 271 272 273 274 275 275 275
280 276 279 277 273 274 277 277 277 278 277 275 275 276 276 276 274 276 275 277 275 274 275 275 273 273 279 280 280 279 278 278 277 277 277 278 277 276 276 277 276 276 275 275 275 274 273 273 273 272 271 271 271 271 270 270 270 269 269 269 269 269 269 268 268 267 267 267 267 267 267 267 267 267 267 268 268 269 270 270 270 271 273 274 274 275
279 276 274 275 272 273 275 277 274 274 273 271 273 275 276 277 278 278 278 279 278 278 274 272 273 278 279 279 277 277 277 277 276 277 277 276 276 276 276 276 275 275 275 274 274 273 273 272 272 271 271 271 270 270 270 270 269 268 269 269 269 269 268 267 267 267 267 267 266 266 266 266 266 266 267 267 268 269 269 270 270 272 272 273 274 275
279 278 275 278 270 271 272 273 274 271 266 271 278 279 278 276 277 276 276 277 279 279 277 278 278 279 279 278 276 275 276 276 277 278 278 277 276 277 276 275 274 275 275 274 273 273 272 272 272 271 271 270 270 270 270 269 268 268 269 269 268 267 267 267 266 266 266 266 266 266 266 266 265 265 266 267 268 268 269 269 269 270 270 271 272 273
277 278 275 278 272 271 272 273 269 266 269 276 277 281 281 279 279 277 278 278 278 279 279 278 278 279 279 278 277 277 277 277 277 277 277 278 278 276 274 274 275 274 273 273 272 272 272 271 271 270 270 269 269 269 268 268 268 268 267 267 266 267 266 266 266 265 265 265 266 265 265 265 265 265 265 266 266 267 267 267 268 268 269 270 271 273
277 276 276 275 273 272 269 269 265 269 276 276 276 278 279 278 277 276 275 277 278 278 278 277 278 279 279 278 277 278 277 277 277 277 277 277 276 275 275 274 274 273 272 272 271 271 271 270 270 269 269 269 268 268 267 267 267 266 266 267 266 266 266 265 265 265 265 265 265 265 265 264 264 264 265 265 265 265 266 266 267 267 269 270 271 273
280 278 277 271 277 266 272 269 271 277 275 278 276 275 276 274 274 274 270 274 277 278 278 278 278 278 278 276 277 277 277 276 275 276 277 276 276 276 275 273 273 272 272 272 271 271 271 270 269 269 268 268 267 266 266 266 266 265 265 265 265 265 265 264 264 264 264 264 264 264 264 264 264 264 264 264 265 265 265 266 266 267 268 269 270 271
282 276 278 271 271 272 267 268 270 269 267 273 277 280 280 280 279 278 274 272 278 277 279 278 276 276 276 276 276 276 276 274 272 274 275 276 276 275 274 275 273 272 272 271 271 270 270 269 269 268 267 266 266 266 266 265 265 264 264 264 264 264 264 263 263 263 263 263 263 263 263 264 263 263 263 264 264 264 265 266 267 268 269 269 269 270
281 281 279 275 272 272 270 267 266 266 271 276 274 277 279 279 278 276 271 269 276 277 278 278 277 276 276 275 276 276 272 268 270 274 275 275 274 274 273 272 272 271 271 270 270 269 269 268 268 267 266 265 264 265 265 264 264 263 263 263 263 263 262 262 262 262 262 262 263 263 263 263 263 263 263 263 264 264 265 265 266 267 268 268 269 271
276 276 275 272 271 272 271 269 268 272 271 274 275 276 277 278 279 274 264 266 275 277 278 278 276 276 276 276 276 275 272 268 271 275 275 274 274 273 272 271 270 270 270 270 269 268 268 267 266 265 264 263 264 264 264 263 263 262 262 263 263 262 261 261 261 262 262 262 262 262 262 263 263 263 263 263 264 265 265 266 266 267 267 268 269 270
273 272 274 269 271 272 273 269 272 272 278 276 276 276 277 279 276 266 266 272 276 277 277 278 276 277 277 276 277 272 275 276 276 275 274 274 273 272 272 271 270 269 269 268 268 270 267 265 265 264 263 264 264 263 263 262 262 261 262 262 261 261 261 262 261 261 261 261 261 261 262 262 263 263 263 264 264 265 266 266 266 267 267 268 269 271
271 272 272 273 269 269 271 269 269 273 278 277 278 278 279 275 266 267 275 278 277 276 277 278 277 278 278 277 277 276 277 276 276 274 274 273 272 271 271 270 269 269 268 268 268 267 265 264 263 263 263 263 263 262 262 261 260 261 261 261 260 261 261 261 261 260 260 260 260 261 261 262 263 264 264 265 265 266 266 267 267 267 268 269 269 271
272 269 268 269 272 272 271 268 267 265 276 279 278 276 278 272 273 277 277 277 279 278 278 278 278 278 278 277 277 277 276 275 274 273 273 272 271 270 269 268 268 267 267 266 265 265 264 262 262 262 262 262 262 262 262 261 260 260 260 259 260 260 260 260 260 259 259 259 260 260 261 262 263 263 265 266 267 266 266 267 268 268 269 269 270 271
278 270 271 272 275 266 269 266 267 274 277 279 278 272 276 279 280 279 278 277 278 279 278 278 278 278 278 277 276 275 274 273 273 273 272 271 270 269 268 268 267 266 266 265 265 264 263 262 261 261 261 261 261 261 261 260 259 259 259 259 260 260 259 259 259 259 259 259 260 261 262 262 264 265 268 269 270 270 268 268 268 269 270 271 272 273
280 276 278 271 277 272 271 275 278 279 279 280 280 280 279 281 281 280 279 279 278 278 278 278 278 278 278 276 275 275 272 273 272 272 270 269 268 267 266 266 266 265 264 264 263 263 262 261 260 260 260 260 260 260 260 260 259 258 258 259 259 259 258 258 258 258 258 258 260 261 262 264 265 267 267 268 269 270 270 269 269 269 271 272 273 275
280 281 278 277 276 280 280 279 279 279 279 279 281 281 279 280 280 280 279 278 279 279 279 278 277 276 275 275 273 271 272 272 271 270 269 268 267 267 266 265 265 264 264 263 262 262 261 260 259 258 258 259 259 260 260 259 259 257 258 259 258 258 258 257 257 257 257 258 260 261 263 264 265 266 267 267 268 269 271 271 271 272 273 274 277 279
279 279 279 277 279 277 272 280 278 279 279 279 280 280 280 279 280 279 279 279 278 278 277 277 277 275 274 273 272 272 272 271 269 268 267 266 266 265 265 264 264 263 262 261 261 261 260 259 258 257 257 257 258 259 259 258 258 258 258 258 258 258 257 256 256 257 257 258 260 262 263 264 264 265 265 266 267 269 270 271 274 274 275 277 279 280
275 282 277 279 278 277 276 279 280 281 280 281 280 279 278 279 279 279 279 278 278 276 276 275 274 272 272 271 272 271 270 269 268 266 265 265 264 264 263 263 263 262 261 261 261 260 258 258 257 257 257 257 258 258 258 257 257 257 257 257 257 257 256 256 256 256 257 259 260 261 262 263 265 264 264 265 266 266 267 269 272 273 276 279 281 282
279 282 274 278 276 278 280 279 279 279 279 279 280 280 281 280 279 278 276 276 275 274 272 272 272 272 272 271 271 270 268 267 266 265 263 263 263 263 263 262 261 260 261 260 260 259 258 257 256 256 256 257 258 257 257 256 256 256 256 257 256 256 255 255 256 257 258 259 260 261 263 263 263 263 263 264 265 266 267 268 269 271 273 276 278 282
279 276 279 278 275 274 275 278 278 273 273 278 279 280 280 280 279 277 275 274 274 272 272 271 271 271 270 271 270 269 266 265 265 264 262 263 262 262 262 261 260 259 259 260 259 258 257 257 256 256 256 256 257 256 256 255 256 256 256 256 256 256 255 255 256 257 258 259 260 261 262 262 262 262 262 263 263 263 265 269 271 271 271 272 276 279
278 279 278 276 275 274 280 281 282 281 279 279 279 280 280 279 278 276 275 274 274 274 272 271 269 267 267 267 267 266 265 265 264 264 262 262 262 261 261 260 258 258 259 259 257 257 256 256 256 256 255 256 256 255 255 255 255 255 255 255 255 255 255 255 256 257 258 258 259 261 261 261 261 261 261 262 262 262 263 263 265 270 272 273 274 277
Wind_Speed
0 3 4 3 3 3 3 1 1 3 2 3 3 4 6 7 7 7 3 3 2 2 3 3 6 10 7 4 11 7 6 7 7 6 4 4 4 4 5 3 2 2 1 1 3 2 4 5 6 5 5 5 6 6 7 10 9 10 12 13 14 11 12 11 13 12 13 13 13 12 13 14 13 11 11 10 9 9 9 11 12 10 9 11 12 12
1 4 2 3 3 2 1 1 1 2 3 3 4 4 7 6 7 2 4 5 4 2 3 4 12 12 7 5 11 7 7 8 7 6 5 5 4 4 4 1 2 0 0 3 4 4 4 5 5 5 6 6 8 7 8 9 9 10 12 12 13 13 13 14 14 14 13 12 12 13 14 14 14 14 13 12 9 10 10 12 11 8 9 11 11 11
5 5 1 1 0 1 0 1 2 3 3 4 5 6 5 6 2 5 1 2 1 3 6 7 10 8 7 3 11 10 7 5 5 5 5 5 5 3 3 3 1 3 3 3 3 3 5 6 8 7 6 6 6 8 9 8 11 12 12 12 13 13 14 14 15 15 14 14 14 13 14 15 15 14 13 12 12 12 11 11 10 8 9 10 10 11
6 1 2 1 0 1 2 4 3 4 5 6 6 5 5 1 2 4 1 2 4 2 6 5 9 8 5 6 7 5 5 4 5 6 4 5 4 4 3 3 1 2 1 3 3 3 5 6 6 7 7 8 8 9 9 9 11 10 11 13 14 14 13 14 15 16 17 17 17 16 15 15 15 16 15 15 14 12 11 11 8 8 8 9 11 11
8 8 2 1 0 0 2 3 4 4 5 2 4 6 6 1 0 2 4 8 8 11 3 6 9 7 6 8 5 5 6 7 6 6 5 4 3 5 3 2 4 2 2 2 3 3 5 7 7 8 9 9 10 10 10 11 12 11 14 15 14 14 16 16 17 19 18 16 15 14 15 14 15 14 12 12 13 12 10 10 9 9 8 9 10 10
7 1 1 0 0 0 1 3 2 1 5 3 1 2 2 1 3 3 5 7 4 5 1 2 6 3 8 9 8 7 6 7 8 8 7 4 4 3 3 3 4 1 1 2 3 3 5 7 9 10 9 9 9 10 10 11 13 14 15 14 15 17 18 18 18 19 16 15 15 15 15 17 15 15 13 12 13 13 14 13 11 9 8 8 9 9
3 1 1 0 0 2 2 4 2 3 3 1 2 0 2 2 2 4 5 2 4 2 2 4 1 10 4 6 9 8 8 8 6 5 5 5 5 3 3 3 2 1 3 2 3 4 5 10 11 12 12 10 10 11 10 11 13 14 13 15 18 17 17 17 17 17 16 15 14 17 17 17 18 17 14 11 12 13 13 11 12 11 10 8 8 9
1 2 1 1 1 2 2 4 0 1 2 4 1 2 0 3 4 5 5 5 8 5 6 6 6 9 9 7 8 12 10 8 7 5 6 6 3 4 3 1 2 2 2 2 3 4 6 10 12 13 13 11 12 12 12 13 12 14 18 18 18 17 19 18 17 16 16 17 15 16 18 17 17 17 18 17 14 13 13 14 14 11 10 8 6 8
1 2 2 2 1 1 4 1 1 1 2 2 1 1 3 3 6 7 6 7 7 6 7 5 6 4 5 4 8 13 10 9 8 8 6 5 4 4 2 2 1 1 2 2 4 6 8 10 12 12 13 13 13 13 14 14 14 15 16 18 19 20 20 19 19 17 17 18 17 17 17 18 15 15 16 16 15 14 13 14 14 12 10 8 6 6
1 1 2 2 2 4 3 1 1 2 1 1 2 3 5 5 6 6 5 7 6 2 12 3 4 5 10 3 6 6 6 10 9 9 7 4 5 1 2 0 1 2 2 2 5 6 7 9 11 11 12 12 12 12 13 15 15 16 17 19 21 22 20 20 19 17 16 17 17 18 20 23 22 19 18 16 17 16 14 15 16 15 12 9 7 5
1 2 3 3 4 1 2 1 1 0 1 3 2 4 4 4 7 5 5 5 3 7 10 6 11 8 6 5 9 10 6 8 7 5 5 5 3 2 1 0 2 3 3 5 5 5 7 9 10 11 12 12 13 12 13 14 17 17 17 18 21 24 22 19 16 16 19 18 15 16 21 23 24 24 22 21 21 16 14 13 14 13 11 8 7 5
2 2 0 2 4 1 3 0 3 1 1 1 1 1 5 7 5 3 3 3 1 6 1 6 1 5 7 3 3 1 3 8 9 9 7 3 3 1 0 2 4 4 5 5 4 6 9 10 11 10 11 13 14 14 15 16 18 18 17 18 22 23 22 20 20 21 22 18 16 16 17 18 20 22 20 20 21 19 16 14 14 13 12 10 7 6
2 7 1 3 4 2 1 1 2 1 1 1 1 3 2 5 4 3 4 3 5 9 1 4 6 7 9 7 3 7 6 6 6 7 6 3 1 2 4 2 3 4 5 4 5 6 9 10 12 12 14 14 13 14 16 18 18 18 17 19 21 23 24 23 20 21 24 19 16 16 15 15 16 19 21 21 19 19 19 15 14 13 13 10 7 6
4 2 2 3 2 3 2 3 1 2 3 2 2 2 0 3 2 7 4 3 4 0 2 5 4 6 6 8 8 10 7 7 9 8 4 5 2 2 1 2 4 4 3 4 4 6 8 10 10 11 13 14 14 16 19 18 18 18 18 19 20 24 25 25 21 21 23 20 16 15 13 13 13 17 18 19 17 17 16 17 18 15 12 11 9 7
5 3 4 4 2 3 3 2 1 1 1 3 1 2 3 2 2 6 1 4 5 5 4 2 7 5 3 3 2 12 9 8 7 7 6 4 3 2 1 3 2 3 3 4 5 7 9 10 11 12 14 13 14 16 18 17 17 17 19 19 23 25 26 24 24 23 23 18 17 18 14 11 13 15 15 16 18 18 17 16 18 17 14 12 9 8
7 8 0 2 1 2 5 1 1 1 2 2 1 4 2 5 0 8 1 1 4 7 9 4 6 2 2 2 5 9 8 7 6 7 4 3 4 3 3 2 3 3 4 4 6 8 9 9 10 12 14 14 14 16 17 18 17 18 19 20 23 25 26 23 23 23 22 23 17 17 20 18 14 11 14 15 15 18 21 22 19 19 16 13 11 7
1 6 1 2 2 1 1 2 1 1 2 1 3 2 3 0 1 3 4 1 1 1 14 2 7 4 3 0 4 5 5 7 6 5 5 2 3 3 1 1 1 2 3 5 6 7 9 9 11 12 13 13 14 16 18 20 19 19 19 18 22 24 23 23 21 20 20 21 20 18 18 17 12 15 18 17 19 19 15 15 18 21 19 13 9 7
3 7 1 2 3 0 1 2 3 1 0 3 2 2 2 2 3 2 4 3 1 6 9 6 9 9 5 6 4 5 5 4 3 4 3 2 1 1 1 1 2 4 4 5 6 7 7 9 12 13 11 12 15 16 16 18 18 16 15 17 20 21 22 22 21 20 19 20 19 18 17 15 17 17 17 16 17 17 18 17 15 16 19 18 11 7
5 9 3 3 2 1 2 1 4 2 1 2 1 1 2 1 1 1 6 3 2 8 8 6 5 8 9 7 6 7 7 6 3 2 1 3 2 1 1 2 2 4 5 5 7 8 7 10 11 11 11 13 14 14 14 15 16 15 15 16 17 19 19 20 19 19 18 18 15 14 17 19 18 13 14 15 16 16 18 19 18 19 17 19 19 9
2 4 3 1 1 1 1 3 5 1 0 2 1 2 0 1 3 4 5 3 1 11 5 14 5 8 5 4 14 10 7 4 1 1 1 1 1 1 2 3 4 5 6 6 7 8 10 11 11 9 11 14 15 14 14 14 14 17 17 18 19 19 20 21 21 20 20 20 19 19 18 16 16 15 14 15 17 18 19 19 19 19 19 18 17 17
3 4 9 2 4 2 2 6 6 8 6 2 3 4 0 2 1 2 2 4 4 4 5 11 16 2 1 2 7 6 5 4 4 1 0 1 0 1 1 3 4 5 7 7 9 10 11 12 10 10 12 13 13 12 12 13 16 16 16 19 20 20 21 20 20 19 18 17 20 20 18 19 19 20 14 16 17 18 17 18 18 18 16 16 16 16
1 3 11 2 1 7 3 1 4 1 4 8 9 11 11 7 4 4 10 4 3 5 6 4 17 10 1 2 5 5 4 5 2 0 2 1 1 1 2 3 4 6 6 7 9 9 11 10 10 13 14 14 14 15 16 16 14 17 19 18 19 18 17 18 19 19 19 18 18 19 19 19 17 17 17 18 18 18 17 16 16 17 18 18 17 14
4 1 1 11 8 8 3 2 1 0 0 2 3 7 8 8 5 5 10 6 1 6 2 8 8 17 9 4 3 4 5 4 1 3 2 0 1 1 1 3 4 5 6 9 10 10 10 9 11 13 15 16 16 16 16 15 15 17 18 19 20 19 20 18 18 17 18 18 19 21 20 18 18 16 17 18 16 17 17 16 16 16 17 17 17 16
3 2 2 11 3 1 1 1 0 2 1 3 5 3 4 11 11 9 8 1 4 2 2 4 8 9 2 1 3 4 4 5 5 4 0 1 2 1 2 4 5 5 7 9 8 9 9 9 11 13 14 15 15 16 17 16 16 16 17 17 19 22 21 20 19 19 20 19 20 21 21 19 18 18 18 17 15 17 17 17 16 14 16 17 15 16
3 3 6 4 6 4 1 1 2 1 1 5 5 7 5 1 2 1 1 3 4 14 11 7 14 15 3 3 3 5 5 7 5 2 3 3 2 2 3 4 4 6 9 9 10 10 11 13 14 14 14 15 16 15 16 17 17 17 18 17 17 19 19 17 17 18 18 19 22 20 20 20 17 17 17 18 16 18 17 18 16 14 15 15 16 16
5 3 7 5 11 12 11 8 5 6 9 6 3 4 5 9 7 2 7 4 8 11 13 13 15 17 4 6 7 5 5 4 5 3 2 3 2 3 4 5 5 8 10 11 11 9 13 15 14 15 15 15 15 15 16 17 17 18 18 18 16 17 18 19 18 17 18 19 19 21 23 20 18 17 18 18 18 18 17 17 16 16 14 13 15 16
2 1 7 11 13 15 14 1 1 4 2 6 4 10 11 8 11 11 5 6 18 9 11 18 17 17 18 14 12 10 7 10 6 2 2 2 2 3 3 4 5 8 10 11 9 10 13 16 17 15 15 15 15 15 15 16 17 17 18 20 19 16 16 17 17 18 17 20 24 22 21 21 20 18 18 18 18 17 16 17 17 16 16 15 15 14
2 2 13 13 20 19 12 6 1 7 6 7 7 9 11 14 12 14 14 21 3 2 18 19 12 14 22 14 12 10 7 4 4 3 1 2 2 2 2 3 7 9 9 7 8 12 15 16 16 15 15 16 16 17 17 16 16 17 16 17 18 17 16 15 18 21 21 18 17 19 22 20 19 19 18 17 18 17 17 16 16 16 15 14 15 13
5 8 10 10 21 18 12 11 3 3 6 6 9 7 11 13 12 17 22 20 10 13 23 17 8 14 16 10 11 4 3 3 5 0 1 0 2 2 4 6 8 9 8 7 9 12 14 15 15 16 16 16 17 19 20 18 18 17 17 18 17 16 16 17 17 17 17 20 22 20 21 20 19 18 18 18 18 18 18 18 18 17 15 14 13 12
4 10 5 6 13 12 9 10 10 13 12 12 13 9 12 13 18 21 21 18 18 22 21 20 20 24 19 16 15 10 4 6 2 1 0 1 2 3 5 7 9 8 7 8 11 12 13 15 15 16 17 17 17 19 20 19 18 19 20 21 20 19 17 18 23 22 21 20 22 23 20 20 20 20 20 18 19 19 18 17 18 16 18 17 16 15
8 5 6 7 9 14 9 6 8 9 10 16 14 10 15 16 18 21 18 19 17 21 25 26 24 25 20 14 11 8 7 2 0 0 0 1 1 4 5 7 9 7 7 10 11 12 13 14 15 15 16 17 18 18 18 18 19 19 20 18 19 19 22 22 21 19 19 23 23 22 22 21 21 21 21 20 19 17 15 15 15 16 16 15 15 15
8 4 4 1 2 7 4 10 9 9 11 17 19 21 18 18 22 21 20 18 13 21 22 18 17 18 19 2 2 4 2 0 1 0 1 1 2 3 6 7 6 6 9 11 11 11 13 15 16 17 17 18 18 19 17 18 20 20 20 20 19 19 18 18 20 21 18 14 21 22 23 23 21 22 21 20 18 16 16 15 16 16 17 15 14 13
8 5 4 3 3 6 3 4 3 5 9 15 25 23 20 23 22 18 17 15 19 19 16 17 20 16 9 2 4 4 1 1 2 1 1 3 4 3 5 5 4 7 11 10 10 11 13 14 15 16 17 16 17 18 19 18 19 20 20 20 19 19 21 22 22 22 23 24 23 22 20 20 21 21 20 19 17 16 14 16 15 14 14 15 15 16
6 7 5 4 5 1 3 5 2 2 10 20 3 8 18 22 23 23 21 21 21 15 16 14 14 10 6 5 5 4 1 0 2 1 2 0 4 6 2 3 5 7 9 8 9 10 11 12 13 14 14 15 16 16 16 16 16 17 17 17 19 18 20 20 20 20 20 17 17 19 20 21 21 22 21 18 16 16 16 16 15 15 12 14 15 18
12 9 6 4 3 3 4 2 2 8 21 4 3 1 10 15 18 21 22 20 14 14 15 16 15 13 10 7 5 2 4 4 4 3 3 4 4 2 3 5 7 7 8 8 10 11 11 13 14 15 16 16 17 16 16 18 17 18 19 19 19 22 22 22 24 23 21 21 20 22 21 19 20 21 20 19 17 16 16 16 16 15 14 14 16 17
10 10 5 3 3 2 3 5 3 16 3 3 1 1 3 2 3 5 15 16 10 12 12 15 16 11 8 5 2 6 6 3 3 3 2 3 6 4 4 5 5 6 7 6 8 10 11 12 14 16 17 16 16 17 16 17 18 19 20 19 19 22 21 19 18 21 20 18 16 18 20 23 22 21 21 20 19 18 19 18 18 17 16 16 14 16
10 6 7 5 5 7 5 10 17 15 23 28 8 7 9 7 8 11 12 13 11 11 12 13 11 8 5 3 7 6 5 4 4 4 7 4 4 3 0 3 4 4 5 6 6 9 9 10 12 14 15 16 16 16 16 17 17 18 19 20 18 19 15 15 17 18 20 22 21 22 23 20 21 22 22 21 21 19 17 17 19 18 14 15 15 16
10 13 6 8 6 7 4 7 6 5 12 9 4 2 13 11 5 1 2 14 7 11 11 11 10 7 3 6 6 7 5 5 5 2 1 2 3 2 1 3 3 4 5 7 7 8 8 9 10 12 13 16 17 15 14 16 17 18 19 19 18 16 19 22 21 22 20 19 20 19 19 20 20 20 21 20 20 21 19 17 16 15 12 13 14 14
5 5 3 9 4 5 5 8 9 9 17 4 1 4 4 9 8 4 2 14 6 12 13 10 9 4 7 7 5 6 4 2 5 4 5 3 1 3 2 1 3 4 5 6 8 9 9 10 12 14 14 15 16 16 15 16 17 17 18 18 18 20 22 20 20 20 22 25 23 23 23 22 22 21 21 21 20 19 20 18 16 15 14 14 14 14
9 7 6 7 10 9 7 7 14 8 11 4 7 3 7 6 7 4 2 8 1 8 6 9 7 8 6 6 6 5 7 6 6 4 3 3 3 2 1 2 3 4 5 6 5 6 8 9 10 13 15 17 17 16 17 16 16 17 16 17 21 20 19 20 22 25 23 21 22 21 21 19 21 22 21 22 21 19 17 15 15 15 14 15 13 14
7 5 10 19 11 11 12 9 7 12 8 11 9 6 8 6 7 4 14 5 1 6 6 9 8 8 7 6 7 7 8 5 4 4 3 3 2 1 1 1 2 3 6 7 8 8 8 8 8 11 13 13 15 15 15 14 16 17 18 19 18 19 20 23 23 23 22 21 21 21 22 19 19 21 21 19 18 17 16 14 14 14 14 14 14 14
3 3 4 3 10 14 12 10 14 13 7 11 7 14 7 8 5 14 1 7 8 6 7 9 9 6 7 9 8 7 5 2 3 4 3 2 1 0 0 1 3 4 4 4 8 9 10 10 11 12 13 12 12 13 13 14 16 17 16 17 19 21 21 22 22 21 23 24 24 23 21 20 20 18 16 17 15 13 13 13 13 13 14 13 13 15
15 11 13 12 6 2 5 10 3 13 4 21 14 6 6 8 6 4 3 2 8 9 9 6 8 5 8 6 6 5 3 2 2 2 2 3 1 1 1 2 4 5 7 8 8 7 9 11 13 13 14 14 13 13 14 15 17 17 17 19 20 21 21 22 22 23 23 23 21 19 20 20 21 18 13 13 13 13 13 12 11 12 13 14 14 15
11 6 5 7 10 9 12 13 14 6 9 16 19 12 12 14 5 7 7 6 3 7 8 6 6 7 7 8 6 4 4 3 1 3 2 2 1 0 1 2 3 4 5 4 5 9 8 11 11 12 12 13 12 13 13 14 17 18 19 21 21 21 21 21 22 22 21 20 21 23 18 17 20 14 16 19 18 14 11 11 10 10 10 11 12 12
20 14 8 11 11 13 13 14 3 7 13 14 14 5 12 15 7 7 7 10 9 5 5 7 7 7 8 8 6 6 4 5 4 4 4 2 1 1 1 2 3 5 6 8 9 7 7 10 14 14 14 13 13 12 12 12 15 20 20 20 20 23 22 22 22 22 23 23 22 22 21 20 17 18 18 18 17 17 13 10 9 9 10 10 10 11
1 10 5 4 8 7 7 2 3 5 10 13 11 4 5 6 3 5 7 8 6 8 8 9 9 9 7 7 8 4 6 6 5 3 2 1 1 1 1 2 3 3 5 6 6 7 8 10 11 12 15 16 13 13 11 11 12 17 19 20 20 20 20 20 23 24 25 22 21 22 22 19 21 18 19 20 15 13 13 12 8 8 9 9 10 10
6 3 7 7 4 9 11 9 11 9 8 13 14 4 2 4 6 5 7 7 7 8 6 7 11 10 10 8 7 7 6 6 4 3 3 2 1 1 1 2 3 3 5 6 7 8 9 10 12 14 15 17 14 13 13 13 12 12 15 18 19 19 20 21 22 22 21 22 21 20 20 21 18 21 19 18 15 14 14 13 11 8 9 9 10 10
6 10 7 12 8 14 6 1 7 12 12 10 10 10 6 4 5 4 4 5 7 6 6 8 9 7 8 7 7 7 6 5 5 4 3 2 2 1 1 2 4 4 4 4 6 6 7 8 10 13 15 15 16 14 14 14 14 15 15 16 18 19 20 20 19 20 21 23 20 17 18 18 27 25 17 17 16 17 16 14 14 14 14 13 12 10
7 16 10 13 11 8 2 3 5 2 1 8 10 10 10 9 8 6 7 9 9 10 8 6 4 9 9 9 8 6 6 6 5 5 4 2 1 2 1 1 2 3 5 6 5 5 7 8 10 11 13 14 13 14 15 15 15 15 17 17 18 19 20 20 21 20 20 20 19 19 17 16 17 17 17 18 18 15 13 14 16 16 15 14 14 15
12 16 7 11 10 11 15 13 12 6 5 8 12 12 9 8 10 9 8 8 9 10 9 9 5 4 4 5 8 8 9 6 5 5 5 3 3 1 1 1 2 3 4 4 4 5 6 7 8 11 12 12 12 13 14 16 15 14 15 16 16 18 19 18 19 19 19 18 19 17 18 17 18 19 18 18 18 19 18 20 21 16 15 16 25 33
16 16 13 13 11 14 15 8 12 11 5 5 9 9 8 8 10 12 11 11 9 10 12 11 9 5 5 4 4 8 7 8 7 5 5 4 3 1 1 1 2 3 3 4 4 5 6 8 8 9 11 12 12 13 14 15 14 14 15 16 16 17 18 18 17 16 16 17 14 17 18 17 18 19 18 17 18 17 18 19 21 25 27 28 32 29
Wind_Direction
37 353 319 290 38 41 30 20 343 315 329 306 267 241 241 252 266 265 283 121 100 342 236 270 283 271 256 229 161 161 142 131 140 143 142 125 108 97 99 81 44 44 7 294 296 356 358 343 328 326 326 323 327 331 334 328 324 327 326 323 320 319 315 314 314 311 311 310 306 301 300 299 296 296 294 285 283 284 284 292 293 295 309 308 307 308
70 317 317 53 38 27 335 13 290 270 243 245 253 250 259 244 260 305 291 155 116 126 260 271 262 254 249 255 158 150 157 158 153 146 138 122 117 122 104 81 89 297 282 6 351 355 356 324 324 337 340 329 329 325 327 324 323 327 324 322 320 320 318 315 312 309 304 302 303 302 301 302 301 300 294 288 282 281 285 283 281 290 301 305 307 306
346 290 89 77 231 298 205 218 216 217 250 247 241 247 263 270 303 273 119 71 336 20 263 255 262 267 275 215 160 160 168 149 134 131 127 122 123 117 118 110 112 33 10 349 314 350 344 340 344 342 321 321 319 321 327 326 330 327 324 319 317 313 312 311 310 308 303 299 295 295 295 297 296 291 288 284 284 280 278 275 274 286 298 303 306 306
326 172 113 66 25 54 264 208 226 251 232 233 242 246 231 230 95 286 237 55 321 336 285 284 284 276 277 139 152 159 128 113 109 116 114 124 120 106 102 135 101 31 12 331 330 339 339 344 331 329 329 329 330 327 323 328 325 319 315 313 309 307 307 308 309 304 296 292 291 289 286 285 282 288 290 287 281 275 277 274 271 283 286 296 301 303
259 290 96 332 137 38 301 315 282 265 270 264 282 270 265 307 6 201 289 325 304 275 264 287 281 260 162 164 162 132 118 136 144 130 137 129 113 150 155 90 80 27 10 308 307 327 335 336 334 337 332 331 332 327 327 328 324 318 313 310 308 311 313 313 310 306 301 296 294 292 289 283 283 278 280 288 287 282 280 278 274 274 283 290 295 300
272 104 284 131 246 242 320 291 277 82 297 281 130 79 88 48 305 311 309 308 324 292 218 4 328 243 165 178 170 141 150 171 162 160 160 140 138 139 93 67 55 9 33 291 302 314 317 330 340 340 335 332 327 326 324 320 316 313 311 311 318 318 315 311 307 304 303 299 299 303 305 304 296 287 282 279 285 289 286 280 276 273 270 279 289 294
266 171 78 337 99 323 278 249 257 124 259 343 246 333 71 316 269 270 274 335 285 232 218 83 197 292 145 191 187 173 175 178 174 166 144 138 145 119 94 75 74 329 332 305 286 313 331 344 344 336 334 330 327 323 319 317 314 311 315 320 317 315 311 307 304 305 306 302 301 300 300 297 296 293 284 279 279 280 283 280 280 281 279 274 280 292
161 148 103 222 198 242 286 274 48 8 62 264 181 215 91 258 254 252 257 221 249 269 269 252 184 256 270 227 186 172 175 177 170 171 141 147 147 83 97 71 68 317 293 276 295 332 351 346 340 332 328 330 327 322 322 319 316 323 324 319 317 315 309 305 303 305 308 303 299 299 298 293 291 291 291 291 285 282 283 284 281 277 275 269 268 284
167 185 194 216 184 192 243 185 175 216 163 234 224 73 246 255 256 251 243 244 248 283 278 184 217 262 251 246 156 159 174 178 190 160 158 149 108 114 101 79 328 278 281 333 342 355 356 343 335 330 328 325 325 326 323 321 324 326 324 319 313 310 308 306 305 308 308 307 308 306 299 292 289 291 291 292 287 282 280 280 282 278 272 268 262 264
32 125 135 127 109 243 156 205 135 120 251 134 303 275 249 244 247 240 229 255 265 243 268 202 180 226 267 161 133 177 183 182 186 158 141 117 111 135 110 244 280 303 323 341 11 1 346 337 329 325 322 322 325 324 321 323 325 321 316 313 314 314 312 308 309 315 326 335 332 324 319 318 313 311 304 298 290 282 279 277 276 273 270 262 261 260
155 82 45 152 216 191 146 161 189 201 257 341 311 284 280 248 238 219 220 232 299 249 265 236 210 198 287 177 181 174 212 175 147 139 126 123 142 113 139 188 308 346 344 7 6 349 336 328 322 321 321 322 322 322 327 328 323 319 318 319 322 320 315 316 326 331 321 316 318 315 310 307 303 301 300 299 294 281 277 275 277 275 269 257 249 248
194 134 7 272 27 151 103 249 191 191 224 77 327 320 321 294 248 236 236 122 154 262 165 356 81 212 211 310 79 119 86 111 143 146 123 147 121 179 127 11 351 355 11 3 359 339 331 324 321 321 322 327 327 330 331 326 323 321 321 324 321 318 322 321 316 317 315 309 306 303 301 303 305 304 298 295 295 297 286 277 278 278 273 262 243 233
269 226 193 77 303 137 144 2 229 166 220 154 280 289 330 294 6 313 60 321 204 241 247 59 39 335 255 230 130 174 131 127 117 120 133 135 114 58 36 358 345 21 5 356 347 336 327 324 322 325 326 328 333 332 330 327 324 323 323 325 324 321 320 314 314 316 312 305 300 299 297 299 305 303 303 298 295 295 297 295 281 274 269 264 250 235
268 17 69 147 36 230 176 138 210 329 203 214 195 191 120 337 321 272 243 244 259 351 227 107 14 257 248 268 223 161 142 123 118 128 129 112 101 79 41 18 20 6 359 345 337 330 323 320 322 326 329 330 331 333 330 325 325 327 325 325 324 321 321 318 314 315 312 308 308 306 298 303 304 301 298 293 290 292 290 289 290 281 272 265 254 243
309 320 233 160 253 139 204 210 159 153 164 209 127 124 172 172 171 275 239 235 239 241 243 307 14 226 101 263 83 133 132 133 130 131 140 133 130 113 72 51 15 354 355 341 336 323 320 320 325 330 330 328 328 327 328 327 326 328 325 326 326 325 320 320 318 313 309 311 315 307 292 292 305 298 302 312 312 301 287 281 282 282 278 272 264 236
208 234 355 33 189 138 176 74 127 48 325 190 179 71 58 219 171 237 141 275 310 321 297 155 198 177 204 56 89 120 130 126 147 131 120 65 59 45 47 24 7 351 346 339 327 322 319 323 329 335 336 331 330 329 327 326 327 327 327 327 326 323 319 317 319 319 320 317 313 314 309 305 304 310 317 313 311 311 316 311 300 287 276 269 262 236
352 259 245 150 342 81 30 336 216 111 202 349 70 218 204 74 145 306 332 68 49 358 259 165 276 261 121 44 127 129 151 152 142 122 83 67 42 50 26 35 341 345 336 330 324 319 322 326 333 332 328 328 330 330 330 328 329 328 325 324 321 316 312 312 313 312 315 312 311 310 309 307 317 322 316 310 307 310 307 305 308 308 295 272 260 235
206 276 212 157 233 106 334 6 290 20 267 98 197 220 217 119 129 125 234 355 332 248 268 150 229 266 156 265 166 144 184 170 140 106 86 94 50 68 269 357 10 337 336 321 319 319 320 331 333 329 324 327 328 327 326 326 322 318 318 316 313 311 312 314 315 316 315 312 310 312 310 314 315 308 304 305 307 309 307 307 307 305 310 304 276 238
88 298 165 323 27 229 321 351 314 156 5 133 195 326 97 281 299 208 81 261 228 253 283 255 218 229 185 217 158 190 183 177 136 92 77 10 21 343 356 345 353 336 329 330 322 320 326 325 324 321 322 326 324 322 320 318 316 314 313 313 312 310 313 314 314 312 312 312 313 314 312 312 305 306 311 311 308 307 305 307 305 305 304 307 302 264
28 241 300 277 355 146 8 117 226 171 13 57 359 339 218 93 225 152 194 217 224 269 316 280 288 260 176 209 175 176 168 146 94 95 33 346 334 4 346 345 342 339 331 325 324 324 328 326 320 321 324 324 323 322 320 317 317 319 318 317 318 318 319 320 320 319 318 319 314 311 310 310 316 314 315 317 312 306 305 305 305 304 303 302 305 299
241 127 269 90 300 85 249 180 222 164 181 155 158 227 191 183 249 101 300 156 195 260 248 291 290 295 178 28 118 126 141 142 136 176 247 245 249 31 4 354 345 336 333 329 326 326 325 320 319 321 325 321 317 316 316 319 320 320 324 324 326 325 323 320 319 319 317 314 311 311 313 313 310 305 312 313 306 302 301 302 303 301 297 298 297 303
109 192 240 131 258 210 219 29 209 184 191 196 182 214 195 166 187 209 257 101 220 217 237 224 265 277 224 240 125 133 111 134 133 140 253 245 70 57 12 350 347 335 325 326 327 327 322 318 322 326 325 323 321 321 323 321 323 328 326 325 325 323 320 318 319 321 317 316 311 309 309 309 310 311 313 308 302 297 297 297 299 304 307 307 305 303
172 75 174 251 225 246 214 132 3 87 75 244 212 234 178 200 156 190 245 237 51 244 241 262 308 278 148 197 132 131 148 153 155 205 238 183 96 69 13 354 338 330 328 328 328 324 318 321 326 327 325 323 322 320 319 320 325 325 322 325 323 322 322 324 321 320 319 316 314 313 312 311 306 303 304 303 301 297 296 296 296 301 302 301 301 305
45 185 328 266 316 197 294 154 330 91 46 293 246 224 193 199 197 209 231 195 205 216 180 235 237 251 57 112 144 127 148 176 203 200 166 99 95 49 10 344 330 332 331 325 322 321 321 325 326 324 324 322 322 323 322 322 322 321 322 324 324 325 326 328 325 321 319 314 312 311 308 307 307 307 304 300 299 299 300 298 296 298 298 301 304 303
124 222 160 300 321 255 266 330 278 98 136 231 225 209 218 288 150 108 93 78 272 234 218 210 242 261 122 195 159 167 181 203 225 291 78 62 38 25 356 340 335 334 326 322 324 326 328 328 325 324 324 324 322 323 322 323 322 322 320 321 324 321 323 323 321 318 315 315 312 309 307 305 303 302 303 302 300 299 300 298 296 295 294 298 300 303
203 185 140 209 248 277 284 274 256 217 213 225 222 220 207 201 212 149 236 183 239 239 214 230 243 250 187 183 165 190 212 235 287 316 65 84 53 25 348 340 337 333 327 325 325 332 331 327 324 325 326 323 322 322 322 321 320 320 318 319 325 322 321 322 319 318 317 313 310 310 307 305 304 301 302 302 299 297 298 296 294 296 296 295 295 299
177 342 215 215 236 244 253 92 291 102 115 199 220 196 218 210 216 222 218 210 234 243 237 234 234 267 263 252 281 284 294 287 285 314 24 40 27 1 342 339 336 330 326 323 327 331 329 325 325 324 323 320 317 320 320 319 318 317 318 319 321 320 319 320 320 317 314 316 313 310 309 307 303 303 302 300 299 299 300 299 297 294 294 295 292 293
68 232 229 226 241 247 261 285 143 160 211 212 200 213 204 214 212 210 207 231 172 54 258 246 229 250 261 274 271 276 274 286 305 323 46 32 7 324 325 333 331 327 320 320 330 330 326 321 320 322 321 320 321 321 321 319 317 317 318 318 319 319 321 320 319 319 314 312 309 306 305 304 304 302 299 298 298 297 296 294 292 289 289 291 291 293
166 234 237 197 246 253 258 267 225 218 230 232 227 197 209 212 213 217 227 234 214 225 247 262 252 248 258 259 264 249 287 286 293 283 97 312 314 350 352 344 330 320 317 323 328 327 323 322 321 321 321 321 323 324 322 321 320 321 321 318 315 319 322 319 310 309 310 309 310 309 306 303 303 302 298 296 294 294 292 292 291 291 289 288 288 288
78 249 240 223 261 259 254 254 264 263 267 261 242 219 229 224 225 228 237 235 229 245 256 268 267 265 268 268 277 287 295 288 265 121 92 10 342 358 354 331 319 313 319 326 327 326 322 319 319 319 321 323 325 324 322 320 322 324 323 321 321 320 319 322 318 316 313 313 316 312 306 303 298 298 297 295 294 293 292 292 293 288 285 281 279 281
166 266 126 213 254 263 254 255 263 265 268 268 260 237 230 237 244 241 242 241 234 248 251 254 261 268 266 262 276 287 280 163 116 44 22 303 41 2 332 317 310 314 325 326 326 324 319 316 317 320 322 324 324 322 321 319 319 319 317 319 322 324 324 320 315 311 309 310 311 310 307 304 301 298 296 295 294 291 286 283 284 285 282 282 278 277
192 250 96 176 229 274 160 207 238 256 265 268 270 247 236 235 243 239 234 231 221 237 246 253 258 257 263 300 241 251 188 167 187 222 313 36 37 347 315 309 310 323 327 324 324 323 320 320 322 323 324 324 323 322 323 322 321 320 318 319 319 319 319 316 311 305 298 298 309 306 305 305 299 297 296 295 291 287 286 284 283 277 276 274 273 270
189 182 174 161 207 257 59 143 61 7 308 283 253 239 218 229 233 242 242 234 227 230 242 240 239 245 277 290 237 232 212 228 85 55 40 7 327 311 297 296 327 331 323 323 324 324 322 321 320 321 322 322 322 322 321 322 318 317 318 317 318 319 315 315 314 310 308 306 308 309 305 304 303 300 297 292 289 286 283 282 277 277 284 287 285 278
182 195 182 156 172 155 99 85 156 13 282 256 63 172 193 216 225 235 241 233 232 216 233 239 254 259 257 245 239 245 241 154 123 86 102 347 305 303 335 8 335 320 315 321 325 322 319 316 316 317 317 316 315 315 314 314 311 310 314 314 313 313 316 313 307 308 300 294 296 304 305 303 301 298 296 295 292 291 288 286 284 284 280 279 278 275
184 182 196 149 184 175 107 127 50 244 252 15 283 218 197 206 214 226 240 241 236 230 238 247 247 241 234 222 209 169 104 82 58 42 336 309 302 70 48 339 324 318 320 324 323 321 317 316 316 316 318 320 319 318 319 316 318 318 317 317 315 318 314 311 310 304 304 308 310 309 305 301 300 297 297 294 290 288 285 283 283 281 280 278 278 276
182 176 150 213 137 28 140 181 211 238 337 185 146 125 31 171 213 244 266 250 225 226 223 237 242 237 229 219 110 100 94 82 46 326 311 75 94 84 17 306 308 319 319 324 320 317 318 320 319 318 317 318 317 318 319 317 320 320 316 317 316 315 311 310 311 310 306 297 294 303 306 303 301 298 294 292 289 285 284 282 281 281 280 277 276 276
167 154 172 212 161 191 206 195 235 322 323 287 223 202 163 177 180 198 247 257 194 211 211 227 233 227 216 137 109 92 78 61 15 335 69 106 70 76 231 289 312 320 319 319 322 313 315 314 317 316 315 314 317 317 318 320 321 317 315 315 311 307 306 307 299 296 300 308 313 313 312 309 303 296 295 292 288 284 277 274 276 274 273 273 276 278
179 176 181 129 245 137 149 256 290 279 262 280 77 191 188 199 172 92 287 277 159 200 211 214 227 216 166 110 107 97 80 43 318 272 185 92 126 183 1 340 337 334 329 321 318 312 311 314 314 311 312 312 312 315 317 321 318 315 312 310 309 309 307 307 306 313 312 307 301 297 297 295 292 291 289 286 282 280 278 278 279 277 273 271 271 269
208 189 208 201 223 124 182 205 225 236 248 116 92 87 117 102 108 89 8 273 168 196 206 191 206 172 156 134 125 96 79 252 246 187 173 186 145 54 28 351 352 333 325 318 315 315 319 322 320 314 313 311 311 318 322 317 316 314 311 311 311 310 311 315 316 314 308 308 310 312 310 306 298 292 288 284 278 275 276 272 267 267 265 266 269 270
185 186 175 228 220 211 200 209 242 215 260 103 119 119 113 108 91 73 319 282 254 183 164 162 166 145 141 136 131 133 163 214 236 195 147 101 64 90 70 13 331 319 310 307 312 315 318 319 317 314 314 315 316 321 321 321 319 315 312 310 316 316 314 316 314 308 312 312 310 306 300 297 298 293 287 283 279 272 261 262 268 266 265 266 263 266
179 200 192 218 209 216 206 244 296 270 237 152 150 140 120 107 85 124 236 198 238 121 145 134 143 144 142 153 150 177 215 191 151 140 103 86 66 29 29 35 350 316 311 318 318 327 317 315 312 307 307 309 316 320 321 324 322 320 321 320 320 313 313 313 311 314 309 305 304 304 302 296 284 283 278 268 266 265 264 260 255 259 259 260 262 262
220 152 282 212 211 211 213 222 237 273 248 130 169 145 143 84 207 225 225 149 139 130 139 139 145 161 158 177 182 196 186 124 81 77 93 103 134 199 149 346 314 299 303 317 324 331 323 319 314 311 311 313 317 319 321 324 321 319 321 319 314 316 313 316 317 315 314 311 306 300 295 296 293 279 275 270 262 257 254 252 251 252 254 255 257 258
179 158 200 203 173 126 198 233 295 262 218 149 138 119 181 170 242 120 132 130 151 155 147 160 158 174 157 186 182 177 147 111 118 137 138 133 124 220 303 317 307 315 322 326 325 328 327 318 319 322 320 321 325 325 327 326 323 324 321 319 318 320 321 320 318 316 313 311 308 301 296 292 288 290 281 284 275 255 253 253 248 248 250 252 255 255
166 138 208 207 173 158 188 197 213 229 113 153 146 179 196 210 154 138 125 164 160 153 158 153 169 165 164 170 169 161 148 149 178 156 137 141 144 154 264 283 296 317 314 315 322 321 326 315 313 315 319 319 325 325 328 329 325 326 323 318 323 324 320 319 320 318 315 313 313 313 300 291 305 293 310 312 310 291 259 259 253 251 252 251 252 258
194 196 173 182 177 174 194 218 144 147 163 170 183 187 185 206 188 157 144 162 160 187 162 152 163 158 155 154 157 161 168 194 176 155 157 184 167 217 287 312 326 321 321 320 323 321 322 321 321 320 318 321 325 327 329 331 327 325 323 322 325 323 323 323 321 321 319 319 318 320 320 316 315 320 319 320 317 315 301 264 248 250 253 247 249 254
310 196 52 93 219 227 286 140 117 115 162 187 201 165 177 206 182 149 146 148 176 164 163 157 155 153 148 146 146 180 181 179 165 150 141 155 188 260 293 319 311 314 316 316 314 323 325 325 320 320 319 321 327 327 331 332 331 326 322 323 323 322 322 320 322 323 322 321 322 324 323 317 324 326 326 321 315 311 313 300 267 247 251 250 254 254
209 150 163 213 171 140 249 169 167 172 181 190 196 187 104 153 173 167 170 161 153 150 145 141 150 154 155 155 165 168 173 154 155 160 144 166 218 252 298 292 305 322 318 313 315 324 331 334 328 325 325 321 328 332 331 331 329 323 321 322 322 322 323 321 321 320 322 325 326 327 331 328 331 331 327 328 326 321 321 321 308 274 250 247 256 260
238 164 162 216 183 203 229 29 184 178 195 182 183 199 200 175 157 158 147 136 135 133 133 137 124 125 135 159 175 157 169 157 162 181 169 186 198 219 253 289 304 311 306 306 314 328 329 328 325 323 325 325 328 331 330 331 330 330 328 325 327 325 324 324 323 325 325 327 330 332 333 333 331 330 330 331 330 329 329 327 326 324 321 315 296 270
133 144 212 185 201 233 252 186 120 37 152 182 195 205 198 188 166 146 130 128 131 126 118 121 129 156 160 171 162 159 159 178 168 169 169 182 195 213 222 274 298 301 308 312 322 338 332 327 322 320 320 321 327 328 329 330 331 332 333 333 331 330 328 326 324 327 328 333 336 336 337 335 329 331 332 331 330 328 326 329 330 329 323 324 325 306
145 198 161 148 208 211 218 201 141 157 220 194 195 197 197 184 166 150 133 134 146 143 152 144 127 132 149 157 162 164 173 174 163 155 171 182 186 194 228 275 296 299 300 309 324 333 325 322 319 320 323 323 328 328 327 328 331 333 335 334 333 332 330 326 328 331 335 337 338 337 343 340 337 337 336 334 334 332 331 332 334 334 334 333 330 351
186 178 160 188 178 219 224 195 191 211 215 177 182 199 191 168 153 156 170 174 180 169 161 147 142 141 159 160 151 159 164 163 174 160 160 168 179 155 173 226 285 298 307 320 334 328 325 320 324 322 323 325 328 328 326 326 330 333 337 337 334 333 332 331 332 333 337 339 332 338 342 338 341 340 337 337 338 338 339 337 334 338 344 346 349 353